Wind_Speed
19 19 19 18 19 19 18 18 19 19 19 19 19 20 20 21 21 22 22 22 23 23 24 24 24 25 25 26 26 27 28 28 29 29 29 29 29 30
21 21 21 21 21 22 22 22 22 22 23 23 23 23 23 24 24 25 25 26 26 27 27 27 28 29 29 30 30 31 32 32 33 33 33 33 33 34
23 23 23 23 24 24 25 25 25 25 26 26 26 27 27 27 27 28 28 28 29 29 30 31 32 33 33 33 34 35 36 36 36 37 37 38 38 38
25 25 25 25 26 26 26 27 28 28 29 29 29 29 30 30 30 30 31 32 33 33 34 35 36 36 37 38 38 39 40 40 41 41 42 42 42 43
25 26 26 26 27 27 28 28 29 29 30 30 30 31 31 32 33 34 34 35 36 37 37 38 39 39 40 41 42 43 44 44 45 45 46 46 47 47
24 25 26 27 27 28 29 30 30 31 31 32 32 33 33 34 35 36 37 38 39 40 40 41 42 43 44 45 46 47 48 48 49 49 50 50 50 51
25 25 26 27 29 29 30 31 32 33 34 34 35 36 36 37 37 39 40 41 42 42 43 45 46 47 48 49 50 51 51 52 52 53 53 54 54 55
26 27 28 29 30 31 32 33 33 35 36 37 38 39 40 40 41 42 43 44 45 46 48 49 50 51 52 53 54 54 55 56 56 56 57 58 59 59
27 28 30 31 31 32 33 35 36 38 38 39 40 41 43 44 45 46 46 48 49 50 51 53 54 55 55 57 58 58 59 60 61 62 62 63 64 64
28 29 30 32 33 34 35 37 38 39 40 42 43 44 46 47 48 49 50 52 53 54 54 55 55 57 58 60 62 63 64 65 66 67 67 68 68 68
30 31 32 34 35 37 39 40 41 42 44 45 47 48 50 50 52 53 54 55 56 57 57 58 59 60 61 63 65 66 67 67 68 69 70 70 71 71
32 33 35 37 39 41 42 43 44 46 46 48 50 51 52 53 54 55 56 57 59 60 61 62 63 64 64 65 66 67 68 68 69 70 70 71 71 71
34 35 37 38 40 42 43 45 47 48 49 51 52 53 55 56 57 59 60 61 62 63 64 65 66 66 67 67 66 67 68 68 69 69 69 69 69 69
36 38 39 41 42 44 45 47 49 50 51 53 55 56 58 60 61 63 64 65 66 67 67 67 68 68 68 68 67 67 67 67 66 65 64 64 64 64
38 40 41 43 45 47 49 50 51 52 54 55 57 59 60 62 63 65 65 66 67 67 68 68 68 68 68 67 67 66 64 62 61 60 59 59 59 58
40 41 43 46 47 49 50 51 52 54 56 57 59 60 61 63 64 64 65 66 66 67 67 67 67 66 65 64 63 62 60 58 56 55 54 54 54 53
42 43 45 47 48 50 51 52 54 55 57 58 59 61 62 63 64 64 65 64 64 64 63 63 62 62 61 60 58 57 55 53 52 50 49 48 48 49
42 45 46 47 49 50 51 53 55 56 57 58 59 60 61 61 61 62 62 61 60 60 59 58 56 55 55 54 54 51 50 48 47 45 44 43 42 43
43 45 46 47 48 50 51 53 54 55 56 56 57 57 57 57 57 57 56 55 55 54 53 53 51 49 48 46 46 46 45 43 41 40 39 39 37 37
42 43 45 46 47 48 50 51 52 52 52 52 52 52 52 52 52 51 51 50 50 49 48 47 45 44 42 41 39 40 40 38 37 35 35 34 33 33
41 42 43 44 46 46 47 48 48 48 48 49 49 48 48 47 47 46 45 44 44 43 42 41 40 39 38 37 36 35 35 34 33 32 30 30 29 30
39 41 42 43 43 44 44 44 44 45 45 45 45 44 43 42 41 40 40 39 39 38 37 37 36 35 35 34 32 31 30 30 30 29 29 27 27 26
38 39 40 40 40 41 41 41 41 41 41 40 40 39 39 38 37 37 36 35 35 34 33 32 32 32 31 31 29 28 27 26 26 26 27 27 26 25
Wind_Direction
251 253 255 256 256 257 258 261 264 267 270 272 273 274 275 276 276 275 274 275 275 275 276 276 276 276 276 276 276 276 276 276 276 276 276 276 275 274
253 255 256 258 259 260 261 263 264 267 270 272 273 273 273 275 275 275 274 275 275 275 276 276 275 275 275 275 275 276 276 276 275 275 275 275 275 275
255 256 258 259 260 261 263 264 265 268 270 271 273 272 272 274 274 274 274 274 274 275 275 275 276 276 275 275 275 276 276 276 276 275 275 274 274 274
258 259 259 261 262 263 264 265 266 269 270 271 272 272 272 273 273 273 274 274 274 274 275 275 275 275 275 275 275 276 276 276 276 275 275 274 273 273
261 261 262 264 264 265 265 266 267 269 271 271 271 272 272 272 273 273 274 275 275 276 276 276 276 276 276 276 276 276 276 276 276 276 275 275 274 274
264 266 267 267 267 266 267 268 269 271 272 272 273 273 273 274 274 275 275 276 276 276 276 277 277 277 277 277 277 277 277 276 276 275 275 275 275 275
265 266 267 269 269 268 269 270 270 272 273 273 274 274 275 276 276 276 277 276 276 277 278 277 278 278 278 278 277 277 277 277 276 276 276 275 275 275
265 267 268 269 271 271 271 271 272 274 275 275 275 275 276 277 277 278 278 278 278 278 279 279 279 279 279 279 278 278 278 277 277 277 276 276 276 276
268 268 269 270 272 272 273 273 275 276 278 278 277 278 278 278 278 279 279 279 279 279 280 280 280 280 280 280 280 279 279 279 279 279 278 278 278 277
271 272 274 274 274 274 276 277 277 278 278 278 279 279 278 278 278 279 279 280 280 281 281 280 280 280 281 281 281 281 281 281 281 281 280 280 279 278
275 274 275 276 278 278 279 278 279 279 280 280 280 280 280 279 279 280 280 281 281 282 281 281 281 281 281 282 282 282 282 282 282 282 282 281 280 279
278 278 278 279 281 281 281 281 280 280 281 281 281 281 281 281 281 282 283 283 283 283 282 282 282 282 282 283 284 284 284 284 283 283 283 282 281 280
280 281 281 281 282 282 283 282 282 283 283 283 283 283 283 283 283 283 283 284 284 283 283 283 283 283 284 284 284 284 284 284 284 284 284 283 282 281
281 282 282 283 284 284 285 285 285 285 285 285 285 285 285 285 285 285 285 285 285 284 284 284 284 284 285 285 285 285 285 286 285 285 284 283 283 283
284 284 285 285 285 286 287 286 286 286 286 286 286 286 286 286 286 286 286 286 286 286 286 286 286 286 286 286 286 286 286 286 285 285 284 284 284 284
285 285 286 286 287 287 287 287 287 288 287 287 287 286 286 287 287 287 287 288 288 288 288 288 288 288 288 287 287 286 286 286 285 284 284 285 285 284
286 287 288 288 288 288 289 289 289 289 289 289 289 289 289 289 289 289 289 289 289 289 289 290 290 290 289 289 288 287 287 286 286 285 285 285 285 285
289 290 291 291 291 291 291 292 292 292 292 292 292 292 292 291 291 291 291 291 291 291 291 290 290 290 291 290 289 288 287 287 287 287 286 286 286 286
293 294 295 295 295 295 295 295 296 296 296 296 296 295 295 294 294 294 294 294 294 294 293 293 292 292 291 290 290 289 289 288 288 288 288 288 288 287
298 298 298 298 298 299 299 299 300 300 300 300 300 299 298 298 297 297 296 296 296 296 296 295 294 294 292 291 290 290 290 289 288 287 287 289 289 289
301 301 302 302 303 303 304 304 304 304 305 304 303 302 302 301 301 300 300 299 299 299 298 296 296 295 293 293 292 290 290 289 289 288 287 287 289 290
305 306 307 307 308 309 310 310 310 310 310 309 309 308 307 306 305 304 304 303 303 302 301 299 298 297 296 294 293 291 289 290 290 290 290 289 289 288
311 313 314 314 315 316 316 316 315 315 315 315 315 314 314 313 312 310 309 309 308 306 305 303 302 300 299 297 294 292 290 290 289 291 293 295 295 294
Height
5868 5869 5869 5870 5870 5871 5871 5871 5872 5871 5871 5870 5870 5869 5869 5868 5868 5867 5866 5866 5865 5865 5864 5863 5863 5862 5861 5860 5859 5858 5857 5857 5856 5855 5854 5853 5852 5852
5863 5864 5865 5865 5866 5866 5866 5867 5867 5867 5866 5865 5865 5864 5863 5863 5862 5861 5860 5860 5859 5858 5858 5857 5856 5855 5854 5853 5852 5851 5850 5849 5848 5847 5846 5845 5844 5844
5858 5859 5860 5860 5860 5861 5861 5861 5861 5861 5860 5860 5859 5858 5857 5856 5855 5854 5853 5853 5852 5851 5850 5849 5848 5846 5845 5844 5843 5842 5841 5840 5839 5838 5837 5836 5835 5834
5852 5853 5853 5854 5854 5854 5855 5854 5854 5854 5853 5853 5852 5851 5850 5849 5848 5847 5846 5844 5843 5842 5841 5840 5839 5837 5836 5835 5833 5832 5831 5829 5828 5827 5826 5825 5824 5823
5846 5846 5847 5847 5847 5848 5848 5847 5847 5846 5846 5845 5844 5843 5842 5841 5840 5839 5837 5836 5834 5833 5831 5830 5828 5827 5826 5824 5822 5821 5820 5818 5817 5815 5814 5812 5811 5810
5840 5840 5840 5840 5840 5840 5840 5840 5840 5839 5838 5837 5836 5835 5834 5832 5831 5829 5828 5826 5824 5822 5821 5819 5817 5815 5814 5812 5810 5809 5807 5805 5803 5802 5800 5799 5797 5796
5833 5833 5833 5833 5833 5832 5832 5832 5831 5830 5829 5828 5827 5825 5824 5822 5821 5819 5817 5815 5813 5811 5809 5807 5805 5803 5801 5798 5796 5794 5792 5790 5789 5787 5785 5784 5782 5781
5827 5826 5826 5826 5825 5824 5824 5823 5822 5821 5820 5818 5817 5815 5813 5812 5810 5808 5806 5804 5801 5800 5796 5794 5791 5789 5786 5784 5781 5779 5777 5775 5773 5771 5769 5767 5766 5764
5819 5819 5818 5817 5816 5816 5814 5813 5812 5811 5810 5808 5806 5804 5802 5800 5798 5795 5793 5790 5788 5785 5783 5780 5777 5774 5770 5767 5765 5762 5760 5757 5755 5753 5751 5749 5747 5745
5812 5811 5810 5809 5808 5807 5805 5804 5802 5800 5798 5796 5794 5792 5789 5787 5784 5782 5779 5776 5773 5770 5767 5765 5762 5758 5754 5750 5747 5744 5741 5738 5736 5733 5730 5728 5726 5724
5805 5803 5802 5801 5799 5797 5795 5793 5791 5789 5787 5784 5782 5779 5776 5773 5770 5767 5764 5761 5757 5754 5751 5748 5745 5742 5738 5733 5728 5725 5721 5718 5715 5712 5709 5707 5704 5702
5797 5795 5793 5791 5789 5787 5784 5782 5780 5777 5775 5772 5768 5765 5762 5759 5755 5752 5748 5744 5741 5737 5734 5730 5726 5723 5720 5716 5710 5705 5701 5697 5694 5691 5687 5684 5681 5679
5788 5785 5783 5781 5778 5776 5773 5770 5767 5764 5761 5758 5754 5750 5747 5743 5739 5735 5731 5727 5723 5719 5715 5712 5707 5703 5699 5696 5691 5685 5681 5677 5673 5669 5666 5662 5659 5656
5778 5775 5773 5770 5767 5764 5761 5758 5754 5751 5747 5743 5739 5735 5730 5726 5722 5717 5713 5708 5704 5699 5695 5691 5687 5683 5679 5675 5671 5666 5660 5656 5652 5649 5645 5642 5638 5634
5767 5765 5762 5758 5755 5752 5748 5744 5740 5736 5732 5727 5723 5718 5714 5709 5704 5699 5694 5688 5683 5678 5674 5671 5667 5662 5657 5653 5650 5646 5642 5638 5632 5629 5626 5622 5619 5616
5757 5754 5751 5747 5743 5739 5735 5730 5726 5722 5717 5712 5706 5701 5696 5691 5686 5681 5675 5670 5665 5659 5653 5650 5646 5642 5637 5632 5628 5625 5622 5619 5615 5611 5608 5605 5600 5597
5746 5742 5739 5735 5730 5725 5721 5716 5711 5706 5701 5695 5690 5684 5678 5673 5667 5662 5656 5651 5646 5641 5636 5630 5626 5622 5618 5614 5610 5607 5604 5600 5597 5594 5592 5589 5585 5581
5734 5730 5726 5721 5717 5712 5707 5701 5696 5690 5684 5679 5673 5667 5661 5655 5649 5643 5637 5632 5627 5622 5617 5613 5610 5606 5601 5596 5592 5589 5587 5584 5582 5579 5576 5574 5571 5567
5722 5717 5713 5708 5703 5698 5692 5686 5680 5674 5668 5662 5656 5649 5643 5637 5631 5626 5620 5615 5610 5605 5600 5596 5593 5590 5587 5584 5578 5573 5571 5569 5567 5565 5563 5560 5558 5555
5710 5705 5700 5695 5690 5684 5678 5672 5665 5659 5653 5646 5639 5633 5627 5621 5615 5610 5604 5599 5595 5590 5585 5581 5578 5575 5572 5569 5566 5562 5558 5556 5555 5553 5551 5549 5546 5544
5699 5694 5689 5683 5677 5671 5665 5658 5652 5645 5638 5631 5624 5618 5612 5606 5601 5595 5590 5585 5581 5577 5572 5568 5564 5561 5559 5556 5554 5551 5548 5544 5543 5541 5540 5539 5537 5535
5689 5684 5678 5672 5665 5659 5652 5645 5639 5632 5625 5618 5611 5605 5599 5593 5588 5583 5578 5574 5569 5565 5561 5557 5553 5550 5547 5545 5542 5540 5538 5536 5533 5531 5529 5528 5527 5525
5679 5673 5667 5661 5655 5648 5641 5635 5628 5621 5614 5607 5601 5594 5588 5582 5577 5572 5568 5563 5559 5555 5551 5547 5543 5540 5537 5534 5532 5530 5529 5527 5525 5523 5521 5519 5517 5516